FW9423 Weather Reports


time (UTC)temp
C
wind
direction
speed
KPH
gust
KPH
rain 1hr
cm
rain 24hr
cm
rain mn
cm
humidity
%
barometer
mb
20260510045043 20 360 9.7 17.7 0.00 0.00 0.00 51 1027.0
20260510044555 21 360 6.4 17.7 0.00 0.00 0.00 51 1027.0
20260510044044 21 360 9.7 16.1 0.00 0.00 0.00 51 1027.1
20260510043543 20 360 4.8 19.3 0.00 0.00 0.00 52 1027.1
20260510043058 20 360 11.3 19.3 0.00 0.00 0.00 51 1027.3
20260510042545 20 360 9.7 17.7 0.00 0.00 0.00 51 1027.4
20260510042042 20 360 9.7 17.7 0.00 0.00 0.00 51 1027.4
20260510041553 20 360 8.0 24.1 0.00 0.00 0.00 53 1027.5
20260510041041 20 360 6.4 24.1 0.00 0.00 0.00 53 1027.5
20260510040541 20 360 12.9 24.1 0.00 0.00 0.00 53 1027.7
20260510040100 20 360 8.0 16.1 0.00 0.00 0.00 54 1027.8
20260510035542 20 360 9.7 17.7 0.00 0.00 0.00 55 1027.8
20260510035042 20 360 8.0 17.7 0.00 0.00 0.00 56 1027.9
20260510034556 20 360 8.0 20.9 0.00 0.00 0.00 55 1028.0
20260510034043 20 360 8.0 20.9 0.00 0.00 0.00 57 1028.0
20260510033543 19 360 6.4 16.1 0.00 0.00 0.00 57 1028.1
20260510033110 19 360 8.0 19.3 0.00 0.00 0.00 58 1028.3
20260510032543 19 360 6.4 19.3 0.00 0.00 0.00 59 1028.4
20260510032045 19 360 9.7 19.3 0.00 0.00 0.00 58 1028.6
20260510031554 19 360 6.4 19.3 0.00 0.00 0.00 59 1028.7
20260510031041 18 360 9.7 19.3 0.00 0.00 0.00 59 1028.8
20260510030543 18 360 8.0 19.3 0.00 0.00 0.00 60 1028.8
20260510030050 18 360 8.0 17.7 0.00 0.00 0.00 60 1028.9
20260510025543 18 360 11.3 17.7 0.00 0.00 0.00 60 1029.1
20260510025044 18 360 8.0 16.1 0.00 0.00 0.00 60 1029.2
20260510024556 18 360 8.0 16.1 0.00 0.00 0.00 61 1029.2
20260510024044 18 360 8.0 19.3 0.00 0.00 0.00 61 1029.3
20260510023543 18 360 9.7 19.3 0.00 0.00 0.00 61 1029.5
20260510023052 18 360 9.7 20.9 0.00 0.00 0.00 61 1029.5
20260510022543 18 360 8.0 20.9 0.00 0.00 0.00 61 1029.6
20260510022043 18 360 8.0 20.9 0.00 0.00 0.00 62 1029.6
20260510021551 17 360 8.0 16.1 0.00 0.00 0.00 63 1029.6
20260510021043 17 360 6.4 16.1 0.00 0.00 0.00 64 1029.8
20260510020543 17 360 8.0 16.1 0.00 0.00 0.00 64 1029.8
20260510020050 17 360 8.0 20.9 0.00 0.00 0.00 65 1029.8
20260510015541 17 360 8.0 20.9 0.00 0.00 0.00 65 1029.9
20260510015041 17 360 8.0 20.9 0.00 0.00 0.00 66 1029.9
20260510014552 17 360 8.0 16.1 0.00 0.00 0.00 67 1029.9
20260510014041 16 360 8.0 16.1 0.00 0.00 0.00 68 1030.0
20260510013541 16 360 6.4 16.1 0.00 0.00 0.00 67 1030.0
20260510013053 16 360 8.0 16.1 0.00 0.00 0.00 68 1030.2
20260510012548 16 360 8.0 19.3 0.00 0.00 0.00 68 1030.2
20260510012042 16 360 8.0 19.3 0.00 0.00 0.00 69 1030.2
20260510011555 16 360 11.3 19.3 0.00 0.00 0.00 69 1030.2
20260510011042 16 360 8.0 19.3 0.00 0.00 0.00 70 1030.3
20260510010543 16 360 11.3 19.3 0.00 0.00 0.00 70 1030.3
20260510010050 16 360 9.7 19.3 0.00 0.00 0.00 71 1030.3
20260510005544 16 360 8.0 17.7 0.00 0.00 0.00 71 1030.2
20260510005043 15 360 9.7 17.7 0.00 0.00 0.00 72 1030.2
20260510004558 15 360 9.7 16.1 0.00 0.00 0.00 73 1030.3
20260510004043 15 360 8.0 16.1 0.00 0.00 0.00 74 1030.2
20260510003543 15 360 9.7 17.7 0.00 0.00 0.00 75 1030.2
20260510003109 15 360 9.7 17.7 0.00 0.00 0.00 76 1030.3
20260510002542 15 360 8.0 19.3 0.00 0.00 0.00 77 1030.2
20260510002040 14 360 11.3 19.3 0.00 0.00 0.00 77 1030.1
20260510001546 14 360 8.0 19.3 0.00 0.00 0.00 78 1030.2
20260510001043 13 360 9.7 19.3 0.00 0.00 0.00 78 1030.2
20260510000542 13 360 9.7 19.3 0.00 0.00 0.00 79 1030.3
20260510000100 13 360 9.7 19.3 0.00 0.00 0.00 79 1030.2
20260509235542 13 360 9.7 20.9 0.00 0.00 0.00 80 1030.2
20260509235043 13 360 8.0 20.9 0.00 0.00 0.00 81 1030.2
20260509234601 13 360 12.9 19.3 0.00 0.00 0.00 81 1030.2
20260509234043 13 360 9.7 19.3 0.00 0.00 0.00 82 1030.1
20260509233544 12 360 8.0 17.7 0.00 0.00 0.00 83 1030.1
20260509233101 12 360 8.0 16.1 0.00 0.00 0.00 84 1030.0
20260509232543 12 360 6.4 14.5 0.00 0.00 0.00 85 1030.0
20260509232043 12 360 8.0 14.5 0.00 0.00 0.00 85 1030.0
20260509231557 11 360 6.4 14.5 0.00 0.00 0.00 86 1030.0
20260509231043 11 360 8.0 14.5 0.00 0.00 0.00 86 1029.9
20260509230542 11 360 6.4 14.5 0.00 0.00 0.00 87 1029.9
20260509230059 11 360 6.4 14.5 0.00 0.00 0.00 87 1029.9
20260509225542 11 360 6.4 14.5 0.00 0.00 0.00 87 1029.9
20260509225040 10 360 6.4 12.9 0.00 0.00 0.00 87 1029.9
20260509224546 10 360 6.4 12.9 0.00 0.00 0.00 87 1029.8
20260509224039 10 360 6.4 12.9 0.00 0.00 0.00 87 1029.7
20260509223540 10 360 4.8 9.7 0.00 0.00 0.00 87 1029.6
20260509223049 10 360 4.8 8.0 0.00 0.00 0.00 87 1029.6
20260509222539 10 360 4.8 9.7 0.00 0.00 0.00 87 1029.5
20260509222043 10 360 4.8 9.7 0.00 0.00 0.00 87 1029.4
20260509221555 10 360 4.8 8.0 0.00 0.00 0.00 87 1029.3
20260509221043 10 360 4.8 9.7 0.00 0.00 0.00 87 1029.4
20260509220542 10 360 4.8 9.7 0.00 0.00 0.00 87 1029.3
20260509220051 10 360 4.8 9.7 0.00 0.00 0.00 86 1029.3
20260509215546 10 360 4.8 8.0 0.00 0.00 0.00 86 1029.2
20260509215043 10 360 4.8 9.7 0.00 0.00 0.00 86 1029.2
20260509214556 10 360 3.2 9.7 0.00 0.00 0.00 86 1029.2
20260509214042 10 360 4.8 9.7 0.00 0.00 0.00 86 1029.2
20260509213541 10 360 4.8 9.7 0.00 0.00 0.00 86 1029.1
20260509213058 10 360 4.8 9.7 0.00 0.00 0.00 86 1029.1
20260509212543 10 360 4.8 9.7 0.00 0.00 0.00 85 1029.0
20260509212040 10 360 4.8 9.7 0.00 0.00 0.00 86 1029.0
20260509211547 10 360 4.8 9.7 0.00 0.00 0.00 85 1028.9
20260509211043 10 360 4.8 12.9 0.00 0.00 0.00 85 1028.9
20260509210544 10 360 4.8 12.9 0.00 0.00 0.00 85 1028.8
20260509210101 10 360 6.4 12.9 0.00 0.00 0.00 85 1028.8
20260509205545 10 360 4.8 9.7 0.00 0.00 0.00 85 1028.7
20260509205043 10 360 6.4 12.9 0.00 0.00 0.00 85 1028.6
20260509204552 10 360 6.4 12.9 0.00 0.00 0.00 84 1028.6
20260509204040 10 360 4.8 12.9 0.00 0.00 0.00 84 1028.5
20260509203542 10 360 6.4 9.7 0.00 0.00 0.00 84 1028.6
20260509203049 10 360 4.8 8.0 0.00 0.00 0.00 84 1028.6
20260509202543 10 360 4.8 9.7 0.00 0.00 0.00 84 1028.5
20260509202043 10 360 4.8 9.7 0.00 0.00 0.00 84 1028.6
20260509201558 10 360 4.8 9.7 0.00 0.00 0.00 84 1028.5
20260509201046 10 360 4.8 9.7 0.00 0.00 0.00 83 1028.5
20260509200544 10 360 4.8 8.0 0.00 0.00 0.00 83 1028.4
20260509200055 10 360 4.8 9.7 0.00 0.00 0.00 83 1028.4
20260509195543 10 360 4.8 9.7 0.00 0.00 0.00 83 1028.4
20260509195040 10 360 4.8 8.0 0.00 0.00 0.00 83 1028.4
20260509194546 10 360 4.8 8.0 0.00 0.00 0.00 83 1028.4
20260509194039 10 360 4.8 8.0 0.00 0.00 0.00 83 1028.3
20260509193539 10 360 4.8 9.7 0.00 0.00 0.00 82 1028.3
20260509193053 11 360 3.2 9.7 0.00 0.00 0.00 82 1028.2
20260509192543 11 360 4.8 9.7 0.00 0.00 0.00 82 1028.1
20260509192043 11 360 4.8 9.7 0.00 0.00 0.00 82 1028.0
20260509191550 11 360 4.8 9.7 0.00 0.00 0.00 82 1028.1
20260509191042 11 360 4.8 9.7 0.00 0.00 0.00 82 1028.0
20260509190543 11 360 4.8 9.7 0.00 0.00 0.00 81 1028.0
20260509190048 11 360 4.8 9.7 0.00 0.00 0.00 81 1027.9
20260509185543 11 360 4.8 9.7 0.00 0.00 0.00 81 1027.9
20260509185043 11 360 4.8 12.9 0.00 0.00 0.00 81 1027.9
20260509184552 11 360 4.8 12.9 0.00 0.00 0.00 80 1028.0
20260509184039 11 360 4.8 9.7 0.00 0.00 0.00 80 1028.0
20260509183547 11 360 3.2 9.7 0.00 0.00 0.00 80 1028.0
20260509183134 11 360 4.8 9.7 0.00 0.00 0.00 80 1028.0
20260509182540 11 360 4.8 9.7 0.00 0.00 0.00 80 1027.9
20260509182043 11 360 4.8 9.7 0.00 0.00 0.00 80 1028.0
20260509181606 11 360 4.8 9.7 0.00 0.00 0.00 80 1027.9
20260509181041 11 360 4.8 9.7 0.00 0.00 0.00 80 1028.0
20260509180541 11 360 3.2 9.7 0.00 0.00 0.00 80 1028.0
20260509180051 11 360 4.8 8.0 0.00 0.00 0.00 80 1027.9
20260509175544 11 360 3.2 8.0 0.00 0.00 0.00 79 1028.0
20260509175043 11 360 3.2 8.0 0.00 0.00 0.00 79 1028.1
20260509174549 11 360 3.2 8.0 0.00 0.00 0.00 79 1028.1
20260509174042 12 360 3.2 8.0 0.00 0.00 0.00 79 1028.1
20260509173541 12 360 3.2 8.0 0.00 0.00 0.00 78 1028.1
20260509173051 12 360 3.2 8.0 0.00 0.00 0.00 78 1028.2
20260509172542 12 360 4.8 8.0 0.00 0.00 0.00 77 1028.2
20260509172042 12 360 4.8 9.7 0.00 0.00 0.00 77 1028.1
20260509171546 12 360 4.8 9.7 0.00 0.00 0.00 77 1028.1
20260509171043 12 360 3.2 9.7 0.00 0.00 0.00 76 1028.2
20260509170545 12 360 3.2 12.9 0.00 0.00 0.00 76 1028.2
20260509170056 12 360 4.8 12.9 0.00 0.00 0.00 76 1028.2
20260509165541 12 360 4.8 12.9 0.00 0.00 0.00 76 1028.3
20260509165042 12 360 4.8 12.9 0.00 0.00 0.00 75 1028.3
20260509164600 12 360 4.8 12.9 0.00 0.00 0.00 75 1028.4
20260509164042 12 360 4.8 12.9 0.00 0.00 0.00 75 1028.4
20260509163542 12 360 4.8 12.9 0.00 0.00 0.00 75 1028.4
20260509163053 12 360 3.2 9.7 0.00 0.00 0.00 74 1028.4
20260509162543 12 360 4.8 9.7 0.00 0.00 0.00 74 1028.4
20260509162042 12 360 4.8 9.7 0.00 0.00 0.00 74 1028.3
20260509161546 12 360 4.8 9.7 0.00 0.00 0.00 73 1028.3
20260509161045 12 360 6.4 12.9 0.00 0.00 0.00 73 1028.2
20260509160542 12 360 4.8 12.9 0.00 0.00 0.00 72 1028.3
20260509160057 12 360 4.8 12.9 0.00 0.00 0.00 72 1028.3
20260509155543 12 360 4.8 9.7 0.00 0.00 0.00 71 1028.3
20260509155040 13 360 4.8 9.7 0.00 0.00 0.00 71 1028.3
20260509154556 13 360 4.8 14.5 0.00 0.00 0.00 70 1028.3
20260509154044 13 360 6.4 14.5 0.00 0.00 0.00 70 1028.3
20260509153543 13 360 4.8 16.1 0.00 0.00 0.00 69 1028.3
20260509153058 13 360 8.0 16.1 0.00 0.00 0.00 69 1028.3
20260509152540 13 360 6.4 16.1 0.00 0.00 0.00 69 1028.3
20260509152041 13 360 6.4 14.5 0.00 0.00 0.00 68 1028.2
20260509151553 13 360 4.8 14.5 0.00 0.00 0.00 68 1028.3
20260509151041 13 360 6.4 14.5 0.00 0.00 0.00 67 1028.4
20260509150542 13 360 6.4 14.5 0.00 0.00 0.00 67 1028.2
20260509150049 13 360 6.4 12.9 0.00 0.00 0.00 67 1028.3
20260509145542 13 360 6.4 12.9 0.00 0.00 0.00 66 1028.4
20260509145041 13 360 6.4 12.9 0.00 0.00 0.00 66 1028.4
20260509144549 13 360 4.8 12.9 0.00 0.00 0.00 66 1028.4
20260509144039 13 360 6.4 12.9 0.00 0.00 0.00 65 1028.3
20260509143544 13 360 4.8 12.9 0.00 0.00 0.00 65 1028.4
20260509143051 13 360 4.8 14.5 0.00 0.00 0.00 65 1028.5
20260509142540 13 360 4.8 14.5 0.00 0.00 0.00 65 1028.4
20260509142046 13 360 6.4 14.5 0.00 0.00 0.00 65 1028.5
20260509141556 13 360 4.8 12.9 0.00 0.00 0.00 64 1028.5
20260509141042 13 360 6.4 12.9 0.00 0.00 0.00 64 1028.5
20260509140540 13 360 6.4 12.9 0.00 0.00 0.00 64 1028.6
20260509140056 13 360 6.4 12.9 0.00 0.00 0.00 64 1028.5
20260509135542 13 360 4.8 12.9 0.00 0.00 0.00 64 1028.5
20260509135042 13 360 4.8 9.7 0.00 0.00 0.00 64 1028.6
20260509134557 13 360 4.8 9.7 0.00 0.00 0.00 64 1028.6
20260509134040 13 360 4.8 9.7 0.00 0.00 0.00 64 1028.6
20260509133543 13 360 4.8 9.7 0.00 0.00 0.00 64 1028.5
20260509133049 13 360 3.2 8.0 0.00 0.00 0.00 63 1028.6
20260509132545 13 360 4.8 9.7 0.00 0.00 0.00 63 1028.6
20260509132043 13 360 3.2 9.7 0.00 0.00 0.00 62 1028.4
20260509131547 13 360 4.8 9.7 0.00 0.00 0.00 62 1028.5
20260509131042 13 360 4.8 8.0 0.00 0.00 0.00 62 1028.5
20260509130541 13 360 4.8 9.7 0.00 0.00 0.00 61 1028.5
20260509130053 13 360 4.8 9.7 0.00 0.00 0.00 61 1028.6
20260509125543 13 360 4.8 9.7 0.00 0.00 0.00 60 1028.6
20260509125042 13 360 4.8 8.0 0.00 0.00 0.00 60 1028.6
20260509124546 13 360 4.8 8.0 0.00 0.00 0.00 59 1028.7
20260509124043 13 360 4.8 9.7 0.00 0.00 0.00 59 1028.7
20260509123547 13 360 4.8 9.7 0.00 0.00 0.00 59 1028.6
20260509123052 13 360 3.2 8.0 0.00 0.00 0.00 58 1028.5
20260509122541 13 360 4.8 8.0 0.00 0.00 0.00 58 1028.5
20260509122042 13 360 3.2 8.0 0.00 0.00 0.00 58 1028.5
20260509121547 13 360 3.2 8.0 0.00 0.00 0.00 58 1028.6
20260509121042 13 360 3.2 6.4 0.00 0.00 0.00 58 1028.6
20260509120544 13 360 1.6 4.8 0.00 0.00 0.00 58 1028.6
20260509120055 13 360 1.6 4.8 0.00 0.00 0.00 58 1028.5
20260509115541 13 360 1.6 4.8 0.00 0.00 0.00 57 1028.5
20260509115044 13 360 1.6 4.8 0.00 0.00 0.00 57 1028.6
20260509114550 13 360 1.6 4.8 0.00 0.00 0.00 57 1028.6
20260509114043 14 360 1.6 4.8 0.00 0.00 0.00 57 1028.6
20260509113544 14 360 1.6 6.4 0.00 0.00 0.00 56 1028.7
20260509113052 14 360 1.6 6.4 0.00 0.00 0.00 56 1028.6
20260509112545 14 360 1.6 4.8 0.00 0.00 0.00 55 1028.5
20260509112040 14 360 1.6 4.8 0.00 0.00 0.00 55 1028.5
20260509111551 15 360 1.6 4.8 0.00 0.00 0.00 55 1028.5
20260509111041 15 360 1.6 4.8 0.00 0.00 0.00 54 1028.5
20260509110542 15 360 1.6 3.2 0.00 0.00 0.00 54 1028.5
20260509110052 15 360 1.6 4.8 0.00 0.00 0.00 53 1028.5
20260509105540 15 360 1.6 4.8 0.00 0.00 0.00 53 1028.5
20260509105043 15 360 1.6 4.8 0.00 0.00 0.00 53 1028.5
20260509104555 15 360 3.2 4.8 0.00 0.00 0.00 52 1028.5
20260509104040 16 360 3.2 4.8 0.00 0.00 0.00 52 1028.5
20260509103540 16 360 3.2 6.4 0.00 0.00 0.00 52 1028.5
20260509103054 16 360 3.2 6.4 0.00 0.00 0.00 51 1028.5
20260509102540 16 360 3.2 6.4 0.00 0.00 0.00 51 1028.4
20260509102044 16 360 3.2 6.4 0.00 0.00 0.00 50 1028.4
20260509101556 16 360 3.2 6.4 0.00 0.00 0.00 50 1028.5
20260509101040 16 360 3.2 8.0 0.00 0.00 0.00 50 1028.3
20260509100540 16 360 3.2 8.0 0.00 0.00 0.00 50 1028.3
20260509100058 16 360 3.2 6.4 0.00 0.00 0.00 49 1028.3
20260509095540 17 360 3.2 6.4 0.00 0.00 0.00 49 1028.3
20260509095041 17 360 3.2 8.0 0.00 0.00 0.00 48 1028.3
20260509094555 17 360 3.2 8.0 0.00 0.00 0.00 48 1028.3
20260509094042 17 360 3.2 8.0 0.00 0.00 0.00 47 1028.3
20260509093543 17 360 4.8 8.0 0.00 0.00 0.00 47 1028.2
20260509093101 17 360 3.2 12.9 0.00 0.00 0.00 47 1028.2
20260509092541 17 360 4.8 12.9 0.00 0.00 0.00 46 1028.0
20260509092043 17 360 6.4 12.9 0.00 0.00 0.00 46 1028.0
20260509091557 18 360 6.4 12.9 0.00 0.00 0.00 46 1027.9
20260509091043 18 360 8.0 14.5 0.00 0.00 0.00 46 1027.9
20260509090544 18 360 6.4 14.5 0.00 0.00 0.00 46 1027.8
20260509090051 18 360 6.4 14.5 0.00 0.00 0.00 45 1027.9
20260509085540 18 360 6.4 19.3 0.00 0.00 0.00 45 1027.9
20260509085041 18 360 8.0 19.3 0.00 0.00 0.00 45 1027.8
20260509084601 18 360 6.4 19.3 0.00 0.00 0.00 45 1027.7
20260509084047 18 360 8.0 19.3 0.00 0.00 0.00 45 1027.8
20260509083542 18 360 11.3 19.3 0.00 0.00 0.00 44 1027.6
20260509083102 18 360 8.0 19.3 0.00 0.00 0.00 43 1027.7
20260509082543 19 360 9.7 16.1 0.00 0.00 0.00 43 1027.7
20260509082043 19 360 6.4 16.1 0.00 0.00 0.00 43 1027.6
20260509081553 19 360 6.4 17.7 0.00 0.00 0.00 43 1027.6
20260509081043 19 360 8.0 17.7 0.00 0.00 0.00 43 1027.7
20260509080541 19 360 9.7 17.7 0.00 0.00 0.00 43 1027.6
20260509080057 19 360 9.7 17.7 0.00 0.00 0.00 42 1027.5
20260509075539 19 360 8.0 19.3 0.00 0.00 0.00 42 1027.6
20260509075041 20 360 9.7 19.3 0.00 0.00 0.00 42 1027.6
20260509074548 20 360 9.7 19.3 0.00 0.00 0.00 42 1027.5
20260509074044 20 360 8.0 19.3 0.00 0.00 0.00 41 1027.6
20260509073541 20 360 8.0 19.3 0.00 0.00 0.00 42 1027.5
20260509073048 20 360 9.7 17.7 0.00 0.00 0.00 41 1027.5
20260509072543 20 360 8.0 19.3 0.00 0.00 0.00 41 1027.6
20260509072041 20 360 9.7 19.3 0.00 0.00 0.00 42 1027.5
20260509071552 20 360 8.0 19.3 0.00 0.00 0.00 42 1027.5
20260509071043 20 360 8.0 19.3 0.00 0.00 0.00 42 1027.5
20260509070608 20 360 6.4 17.7 0.00 0.00 0.00 41 1027.4
20260509065541 20 360 8.0 17.7 0.00 0.00 0.00 42 1027.5
20260509065041 20 360 8.0 19.3 0.00 0.00 0.00 42 1027.4
20260509064546 20 360 8.0 19.3 0.00 0.00 0.00 43 1027.4
20260509064045 20 360 9.7 19.3 0.00 0.00 0.00 43 1027.4
20260509063540 20 360 9.7 19.3 0.00 0.00 0.00 43 1027.4
20260509063055 20 360 6.4 17.7 0.00 0.00 0.00 42 1027.4
20260509062541 20 360 9.7 19.3 0.00 0.00 0.00 43 1027.4
20260509062043 20 360 9.7 19.3 0.00 0.00 0.00 43 1027.5
20260509061552 20 360 9.7 19.3 0.00 0.00 0.00 43 1027.5
20260509061042 20 360 9.7 19.3 0.00 0.00 0.00 43 1027.4
20260509060543 20 360 8.0 19.3 0.00 0.00 0.00 43 1027.6
20260509060052 20 360 8.0 19.3 0.00 0.00 0.00 43 1027.6
20260509055543 20 360 8.0 19.3 0.00 0.00 0.00 42 1027.6
20260509055041 20 360 9.7 25.7 0.00 0.00 0.00 43 1027.6
20260509054600 20 360 11.3 25.7 0.00 0.00 0.00 42 1027.6
20260509054041 20 360 4.8 17.7 0.00 0.00 0.00 44 1027.7
20260509053542 20 360 4.8 20.9 0.00 0.00 0.00 44 1027.7
20260509053125 20 360 9.7 20.9 0.00 0.00 0.00 43 1027.8
20260509052542 20 360 11.3 19.3 0.00 0.00 0.00 43 1027.9
20260509052045 20 360 6.4 19.3 0.00 0.00 0.00 44 1027.8
20260509051607 20 360 6.4 19.3 0.00 0.00 0.00 44 1027.8
20260509051041 20 360 4.8 19.3 0.00 0.00 0.00 45 1027.8
20260509050541 19 360 8.0 19.3 0.00 0.00 0.00 45 1027.9
20260509050105 19 360 6.4 17.7 0.00 0.00 0.00 45 1027.9
20260509045541 19 360 9.7 17.7 0.00 0.00 0.00 45 1027.9